| time (UTC) | temp C | wind direction | speed KPH | gust KPH | rain 1hr cm | rain 24hr cm | rain mn cm | humidity % | barometer mb |
| 20260505041508 | 4 | 345 | 6.4 | 9.7 | 0.00 | 0.00 | 0.00 | 52 | 1014.7 |
| 20260505040012 | 4 | 345 | 6.4 | 16.1 | 0.00 | 0.00 | 0.00 | 52 | 1014.5 |
| 20260505034505 | 4 | 345 | 1.6 | 19.3 | 0.00 | 0.00 | 0.00 | 52 | 1014.3 |
| 20260505033005 | 5 | 345 | 3.2 | 8.0 | 0.00 | 0.00 | 0.00 | 54 | 1014.1 |
| 20260505031503 | 5 | 345 | 6.4 | 14.5 | 0.00 | 0.00 | 0.00 | 55 | 1013.7 |
| 20260505030103 | 5 | 345 | 11.3 | 19.3 | 0.00 | 0.00 | 0.00 | 54 | 1013.6 |
| 20260505024558 | 5 | 345 | 16.1 | 25.7 | 0.00 | 0.00 | 0.00 | 55 | 1013.3 |
| 20260505023058 | 5 | 345 | 16.1 | 27.4 | 0.00 | 0.00 | 0.00 | 58 | 1012.9 |
| 20260505021554 | 5 | 77 | 17.7 | 29.0 | 0.00 | 0.00 | 0.00 | 60 | 1012.6 |
| 20260505014554 | 6 | 345 | 19.3 | 30.6 | 0.00 | 0.00 | 0.00 | 60 | 1012.4 |
| 20260505013057 | 6 | 84 | 20.9 | 35.4 | 0.00 | 0.00 | 0.00 | 58 | 1012.3 |
| 20260505011551 | 6 | 345 | 19.3 | 30.6 | 0.00 | 0.00 | 0.00 | 58 | 1012.2 |
| 20260505004547 | 7 | 345 | 20.9 | 33.8 | 0.00 | 0.00 | 0.00 | 55 | 1011.9 |
| 20260505003046 | 7 | 345 | 20.9 | 41.8 | 0.00 | 0.00 | 0.00 | 53 | 1011.7 |
| 20260505001544 | 8 | 345 | 19.3 | 32.2 | 0.00 | 0.00 | 0.00 | 51 | 1011.6 |
| 20260505000046 | 8 | 29 | 17.7 | 37.0 | 0.00 | 0.00 | 0.00 | 50 | 1011.3 |
| 20260504234540 | 8 | 41 | 27.4 | 37.0 | 0.00 | 0.00 | 0.00 | 49 | 1011.0 |
| 20260504233043 | 9 | 13 | 14.5 | 37.0 | 0.00 | 0.00 | 0.00 | 45 | 1010.9 |
| 20260504231541 | 9 | 27 | 17.7 | 30.6 | 0.00 | 0.00 | 0.00 | 45 | 1010.6 |
| 20260504230044 | 8 | 19 | 24.1 | 37.0 | 0.00 | 0.00 | 0.00 | 44 | 1010.6 |
| 20260504224533 | 9 | 9 | 20.9 | 35.4 | 0.00 | 0.00 | 0.00 | 45 | 1010.4 |
| 20260504223033 | 9 | 345 | 16.1 | 38.6 | 0.00 | 0.00 | 0.00 | 45 | 1010.3 |
| 20260504221532 | 8 | 345 | 19.3 | 32.2 | 0.00 | 0.00 | 0.00 | 46 | 1010.2 |
| 20260504220032 | 9 | 345 | 19.3 | 27.4 | 0.00 | 0.00 | 0.00 | 45 | 1010.2 |
| 20260504214531 | 8 | 20 | 19.3 | 29.0 | 0.00 | 0.00 | 0.00 | 46 | 1010.2 |
| 20260504213031 | 8 | 345 | 19.3 | 27.4 | 0.00 | 0.00 | 0.00 | 49 | 1010.3 |
| 20260504211530 | 8 | 345 | 17.7 | 27.4 | 0.00 | 0.00 | 0.00 | 49 | 1010.4 |
| 20260504210035 | 8 | 345 | 17.7 | 32.2 | 0.00 | 0.00 | 0.00 | 50 | 1010.4 |
| 20260504204532 | 8 | 345 | 24.1 | 33.8 | 0.00 | 0.00 | 0.00 | 49 | 1010.4 |
| 20260504203048 | 7 | 345 | 20.9 | 33.8 | 0.00 | 0.00 | 0.00 | 53 | 1010.3 |
| 20260504201527 | 7 | 345 | 19.3 | 33.8 | 0.00 | 0.00 | 0.00 | 53 | 1010.3 |
| 20260504200026 | 7 | 345 | 22.5 | 33.8 | 0.00 | 0.00 | 0.00 | 53 | 1010.2 |
| 20260504194525 | 7 | 345 | 20.9 | 33.8 | 0.00 | 0.00 | 0.00 | 53 | 1010.1 |
| 20260504193025 | 8 | 345 | 20.9 | 33.8 | 0.00 | 0.00 | 0.00 | 53 | 1010.1 |
| 20260504191526 | 8 | 345 | 20.9 | 35.4 | 0.00 | 0.00 | 0.00 | 52 | 1010.1 |
| 20260504190025 | 8 | 43 | 24.1 | 35.4 | 0.00 | 0.00 | 0.00 | 50 | 1010.0 |
| 20260504184524 | 9 | 354 | 25.7 | 35.4 | 0.00 | 0.00 | 0.00 | 51 | 1010.0 |
| 20260504183030 | 8 | 26 | 19.3 | 35.4 | 0.00 | 0.00 | 0.00 | 49 | 1010.0 |
| 20260504181522 | 9 | 7 | 20.9 | 29.0 | 0.00 | 0.00 | 0.00 | 49 | 1010.0 |
| 20260504180022 | 8 | 345 | 20.9 | 32.2 | 0.00 | 0.00 | 0.00 | 49 | 1010.1 |
| 20260504174522 | 8 | 345 | 17.7 | 29.0 | 0.00 | 0.00 | 0.00 | 50 | 1010.1 |
| 20260504173021 | 8 | 345 | 19.3 | 32.2 | 0.00 | 0.00 | 0.00 | 50 | 1010.1 |
| 20260504171520 | 8 | 345 | 17.7 | 37.0 | 0.00 | 0.00 | 0.00 | 50 | 1010.2 |
| 20260504081516 | 7 | 345 | 25.7 | 32.2 | 0.00 | 0.00 | 0.00 | 47 | 1006.2 |
| 20260504060106 | 8 | 345 | 11.3 | 17.7 | 0.00 | 0.00 | 0.00 | 44 | 1006.6 |
| 20260504050106 | 11 | 345 | 9.7 | 17.7 | 0.00 | 0.00 | 0.00 | 37 | 1006.7 |
| 20260504044551 | 10 | 345 | 11.3 | 14.5 | 0.00 | 0.00 | 0.00 | 40 | 1006.6 |
| 20260504043056 | 10 | 345 | 12.9 | 16.1 | 0.00 | 0.00 | 0.00 | 41 | 1006.6 |